Tracking 30922 objects as of 2-Jul-2025
HD Live streaming from Space Station
objects crossing your sky now

STARLINK-5670

Track STARLINK-5670 now!
10-day predictions
STARLINK-5670 is classified as:


NORAD ID: 55341
Int'l Code: 2023-013L
Perigee: 565.0 km
Apogee: 567.4 km
Inclination: 43.0 °
Period: 95.8 minutes
Semi major axis: 6937 km
RCS: Unknown
Launch date: January 26, 2023
Source: United States (US)
Launch site: AIR FORCE EASTERN TEST RANGE (AFETR)
Your satellite tracking list
Your tracking list is empty




NASA's NSSDC Master Catalog

Two Line Element Set (TLE):
1 55341U 23013L   25182.11610045  .00000340  00000-0  40280-4 0  9998
2 55341  43.0027 227.5345 0001713 275.5463  84.5184 15.02533858133869
Source of the keplerian elements: AFSPC